Weather History for Doha, Qatar

Change the Weather History Date:

Sunday, October 13, 2013

  Actual Average Record
Temperature  
Mean Temperature 84 °F -  
Max Temperature 94 °F 91 °F 104 °F (2002)
Min Temperature 73 °F 71 °F 73 °F (2013)
Cooling Degree Days 18    
Growing Degree Days 34 (Base 50)    
Moisture  
Dew Point 59 °F    
Average Humidity 46    
Maximum Humidity 73    
Minimum Humidity 21    
Precipitation  
Precipitation 0.00 in 0.00 in - ()
Sea Level Pressure  
Sea Level Pressure 29.82 in    
Wind  
Wind Speed 5 mph ()    
Max Wind Speed 12 mph    
Max Gust Speed -    
Visibility 8.5 miles    
Events      
Averages and records for this station are not official NWS values.
T = Trace of Precipitation, MM = Missing Value Source: Averaged Metar Reports

Daily Weather History Graph

Daily Weather History Graph

Search for Another Location

Airport:

Trip Planner

Search our weather history database for the weather conditions in past years. The results will help you decide how hot, cold, wet, or windy it might be!

Date:

Astronomy

Oct. 13, 2013 Rise Set
Actual Time 5:31 AM AST 5:08 PM AST
Civil Twilight 5:08 AM AST 5:31 PM AST
Nautical Twilight 4:41 AM AST 5:58 PM AST
Astronomical Twilight 4:14 AM AST 6:24 PM AST
Moon 1:12 PM AST (10/13) No Moon Set
Length of Visible Light 12h 23m
Length of Day
11h 37m
Waxing Gibbous, 66% of the Moon is Illuminated
Oct 13
Waxing Gibbous
Oct 19
Full
Oct 27
Last Quarter
Nov 3
New
Nov 10
First Quarter

Hourly Weather History & Observations

Time (AST) Temp. Heat Index Dew Point Humidity Pressure Visibility Wind Dir Wind Speed Gust Speed Precip Events Conditions
12:00 AM 78.8 °F - 60.8 °F 54% 29.80 in - WSW 3.5 mph - N/A   Clear
1:00 AM 77.0 °F - 60.8 °F 57% 29.77 in - West 3.5 mph - N/A   Clear
3:00 AM 75 °F - 61 °F 53% 29.78 in 7 mi WSW 4.6 mph - -  
3:00 AM 75.2 °F - 60.8 °F 61% 29.77 in - WSW 4.6 mph - N/A   Clear
4:00 AM 75.2 °F - 60.8 °F 61% 29.77 in - WSW 3.5 mph - N/A   Clear
5:00 AM 75.2 °F - 64.4 °F 69% 29.80 in - West 5.8 mph - N/A   Clear
5:30 AM 73.4 °F - 64.4 °F 73% 29.80 in - West 4.6 mph - N/A   Clear
6:00 AM 73.4 °F - 64.4 °F 73% 29.80 in - West 3.5 mph - N/A   Clear
6:30 AM 75.2 °F - 62.6 °F 65% 29.80 in - West 5.8 mph - N/A   Clear
7:00 AM 77.0 °F - 62.6 °F 61% 29.83 in - West 6.9 mph - N/A   Clear
7:30 AM 78.8 °F - 64.4 °F 61% 29.83 in - West 6.9 mph - N/A   Clear
8:00 AM 80.6 °F 81.8 °F 62.6 °F 54% 29.86 in - Variable 5.8 mph - N/A   Clear
8:30 AM 82.4 °F 82.9 °F 60.8 °F 48% 29.86 in - Variable 5.8 mph - N/A   Clear
9:00 AM 83 °F - 60 °F 35% 29.86 in 9 mi West 8.1 mph - -  
9:00 AM 84.2 °F 83.8 °F 59.0 °F 42% 29.86 in - West 8.1 mph - N/A   Clear
9:30 AM 84.2 °F 83.8 °F 59.0 °F 42% 29.86 in - West 6.9 mph - N/A   Clear
10:00 AM 86.0 °F 85.4 °F 59.0 °F 40% 29.83 in - WNW 6.9 mph - N/A   Clear
10:30 AM 87.8 °F 86.1 °F 55.4 °F 33% 29.83 in - NW 8.1 mph - N/A   Clear
11:00 AM 89.6 °F 87.3 °F 53.6 °F 29% 29.83 in - NNW 9.2 mph - N/A   Clear
11:30 AM 91.4 °F - 51.8 °F 26% 29.80 in - NW 8.1 mph - N/A   Clear
12:00 PM 91.4 °F 89.1 °F 53.6 °F 28% 29.80 in - NW 6.9 mph - N/A   Clear
12:30 PM 93.2 °F - 51.8 °F 24% 29.80 in - North 10.4 mph - N/A   Clear
1:00 PM 93.2 °F - 50.0 °F 23% 29.80 in - NNE 9.2 mph - N/A   Clear
1:30 PM 93.2 °F - 48.2 °F 21% 29.77 in - NNE 8.1 mph - N/A   Clear
2:00 PM 93.2 °F - 51.8 °F 24% 29.77 in - NNE 9.2 mph - N/A   Clear
2:30 PM 89.6 °F 91.1 °F 64.4 °F 43% 29.77 in - NNE 10.4 mph - N/A   Clear
3:00 PM 89 °F - 65 °F 36% 29.79 in 9 mi NNE 10.4 mph - -  
3:00 PM 87.8 °F 90.4 °F 66.2 °F 49% 29.77 in - NNE 10.4 mph - N/A   Clear
3:30 PM 89.6 °F 87.3 °F 53.6 °F 29% 29.80 in - North 11.5 mph - N/A   Clear
4:00 PM 87.8 °F 87.1 °F 59.0 °F 38% 29.80 in - North 11.5 mph - N/A   Clear
5:00 PM 84.2 °F 85.0 °F 62.6 °F 48% 29.80 in - NNE 6.9 mph - N/A   Clear
6:00 PM 84.2 °F 85.0 °F 62.6 °F 48% 29.83 in - North 4.6 mph - N/A   Clear
6:30 PM 82.4 °F 84.6 °F 66.2 °F 58% 29.83 in - Variable 2.3 mph - N/A   Clear
7:00 PM 82.4 °F 83.9 °F 64.4 °F 54% 29.83 in - NE 3.5 mph - N/A   Clear
7:30 PM 80.6 °F 82.3 °F 64.4 °F 58% 29.86 in - NNE 3.5 mph - N/A   Clear
8:00 PM 80.6 °F 80.8 °F 57.2 °F 45% 29.86 in - North 4.6 mph - N/A   Clear
8:30 PM 80.6 °F 81.1 °F 59.0 °F 48% 29.86 in - NNE 3.5 mph - N/A   Clear
9:00 PM 81 °F - 53 °F 27% 29.87 in 9 mi North 4.6 mph - -  
9:00 PM 80.6 °F - 51.8 °F 37% 29.86 in - North 4.6 mph - N/A   Clear
9:30 PM 80.6 °F 80.3 °F 53.6 °F 39% 29.86 in - North 4.6 mph - N/A   Clear
10:00 PM 80.6 °F 80.3 °F 53.6 °F 39% 29.86 in - North 4.6 mph - N/A   Clear
10:30 PM 78.8 °F - 59.0 °F 51% 29.86 in - Variable 2.3 mph - N/A   Clear
11:00 PM 78.8 °F - 60.8 °F 54% 29.86 in - NNW 3.5 mph - N/A   Clear
11:30 PM 78.8 °F - 62.6 °F 57% 29.86 in - Variable 2.3 mph - N/A   Clear